Home > Weather > Locarno > Past weeks

Flag for Switzerland Past Weather in Locarno, Ticino, Switzerland — Yesterday and Last 2 Weeks

Now
77 °F

Passing clouds.


Feels Like: 79 °F
Forecast: 53 / 71 °F
Wind: 5 mph from Northwest

Location: Locarno-Monti

Current Time: Aug 24, 2016 at 10:00:50 PM

Latest Report: Aug 24, 2016 at 8:00 PM


Visibility: 14 mi

Pressure: 30.11 "Hg

Humidity: 55%

Dew Point: 60 °F

Location of LocarnoLocation

Past Weather in Locarno — Graph

°F

Locarno Temperature Yesterday

Maximum temperature yesterday: 80 °F (at 5:00 PM)
Minimum temperature yesterday: 60 °F (at 7:00 AM)
Average temperature yesterday: 70 °F

High & Low Weather Summary for the Past Weeks

 TemperatureHumidityPressure
High84 °F (Aug 16, 4:00 PM)100% (Aug 20, 5:00 PM)30.31 "Hg (Aug 20, 5:00 PM)
Low58 °F (Aug 12, 6:00 AM)20% (Aug 10, 4:00 PM)29.75 "Hg (Aug 17, 6:00 PM)
Average70 °F63%30.06 "Hg
* Reported Aug 9 8:00 PM — Aug 24 8:00 PM, Locarno, Weather by CustomWeather, © 2016

Note: Actual official high and low records may vary slightly from our data, if they occured in-between our weather recording intervals... More about our weather records

Advertising

Locarno Weather History for the Previous 24 Hours

Scroll right to see more
 ConditionsComfort  
Time TempWeatherWind HumidityBarometerVisibility
8:00 PM
Wed, Aug 24
77 °FPassing clouds.5 mph55%30.11 "Hg14 mi
7:00 PM79 °FWarm.3 mph53%30.10 "HgN/A
6:00 PM80 °FWarm.3 mph53%30.11 "HgN/A
5:00 PM81 °FPassing clouds.8 mph50%30.12 "Hg16 mi
4:00 PM81 °FWarm.7 mph52%30.13 "HgN/A
3:00 PM81 °FWarm.8 mph53%30.15 "HgN/A
2:00 PM80 °FPassing clouds.6 mph55%30.17 "Hg16 mi
1:00 PM77 °FWarm.6 mph57%30.19 "HgN/A
12:00 PM75 °FMild.2 mph61%30.21 "HgN/A
11:00 AM72 °FPassing clouds.3 mph70%30.22 "Hg19 mi
10:00 AM70 °FMild.2 mph73%30.24 "HgN/A
9:00 AM68 °FMild.2 mph83%30.24 "HgN/A
8:00 AM66 °FSunny.No wind83%30.25 "Hg19 mi
7:00 AM65 °FMild.1 mph83%30.25 "HgN/A
6:00 AM65 °FMild.2 mph80%30.25 "HgN/A
5:00 AM65 °FMild.2 mph81%30.26 "HgN/A
4:00 AM66 °FMild.1 mph81%30.27 "HgN/A
3:00 AM67 °FMild.No wind79%30.27 "HgN/A
2:00 AM67 °FMild.No wind77%30.27 "HgN/A
1:00 AM69 °FMild.1 mph75%30.26 "HgN/A
12:00 AM70 °FMild.1 mph70%30.25 "HgN/A
11:00 PM
Tue, Aug 23
71 °FMild.2 mph66%30.24 "HgN/A
10:00 PM72 °FMild.1 mph65%30.22 "HgN/A
Weather by CustomWeather, © 2016

See weather overviewHow to use our weather pages